| time (UTC) | temp F | wind direction | speed knots | gust knots | rain 1hr in | rain 24hr in | rain mn in | humidity % | barometer mb |
| 20260510064036 | 55 | 24 | 7.0 | 12.2 | 0.00 | 0.00 | 0.00 | 71 | 1016.4 |
| 20260510063536 | 55 | 14 | 4.3 | 8.7 | 0.00 | 0.00 | 0.00 | 71 | 1016.4 |
| 20260510063035 | 54 | 347 | 4.3 | 13.9 | 0.00 | 0.00 | 0.00 | 71 | 1016.5 |
| 20260510062535 | 54 | 31 | 3.5 | 7.0 | 0.00 | 0.00 | 0.00 | 71 | 1016.5 |
| 20260510062035 | 54 | 35 | 1.7 | 5.2 | 0.00 | 0.00 | 0.00 | 71 | 1016.6 |
| 20260510061536 | 54 | 23 | 3.5 | 7.0 | 0.00 | 0.00 | 0.00 | 71 | 1016.6 |
| 20260510060535 | 53 | 19 | 1.7 | 7.0 | 0.00 | 0.00 | 0.00 | 71 | 1016.5 |
| 20260510060034 | 53 | 356 | 2.6 | 5.2 | 0.00 | 0.00 | 0.00 | 71 | 1016.5 |
| 20260510055535 | 53 | 31 | 7.0 | 13.9 | 0.00 | 0.00 | 0.00 | 71 | 1016.4 |
| 20260510055035 | 53 | 35 | 6.1 | 12.2 | 0.00 | 0.00 | 0.00 | 71 | 1016.5 |
| 20260510054535 | 53 | 100 | 0.9 | 7.0 | 0.00 | 0.00 | 0.00 | 71 | 1016.5 |
| 20260510054035 | 53 | 27 | 3.5 | 7.0 | 0.00 | 0.00 | 0.00 | 70 | 1016.5 |
| 20260510053535 | 53 | 29 | 2.6 | 12.2 | 0.00 | 0.00 | 0.00 | 70 | 1016.6 |
| 20260510053035 | 52 | 47 | 5.2 | 10.4 | 0.00 | 0.00 | 0.00 | 70 | 1016.6 |
| 20260510052535 | 52 | 46 | 6.1 | 10.4 | 0.00 | 0.00 | 0.00 | 70 | 1016.6 |
| 20260510052035 | 52 | 53 | 5.2 | 12.2 | 0.00 | 0.00 | 0.00 | 70 | 1016.5 |
| 20260510051035 | 52 | 19 | 6.1 | 13.9 | 0.00 | 0.00 | 0.00 | 70 | 1016.4 |
| 20260510050534 | 52 | 42 | 0.9 | 3.5 | 0.00 | 0.00 | 0.00 | 70 | 1016.4 |
| 20260510050035 | 52 | 32 | 2.6 | 5.2 | 0.00 | 0.00 | 0.00 | 70 | 1016.4 |
| 20260510045035 | 52 | 28 | 4.3 | 10.4 | 0.00 | 0.00 | 0.00 | 70 | 1016.4 |
| 20260510044535 | 52 | 23 | 1.7 | 5.2 | 0.00 | 0.00 | 0.00 | 70 | 1016.4 |
| 20260510044035 | 52 | 63 | 3.5 | 12.2 | 0.00 | 0.00 | 0.00 | 69 | 1016.4 |
| 20260510043535 | 52 | 2 | 2.6 | 8.7 | 0.00 | 0.00 | 0.00 | 69 | 1016.4 |
| 20260510043036 | 52 | 57 | 4.3 | 8.7 | 0.00 | 0.00 | 0.00 | 69 | 1016.4 |
| 20260510042535 | 52 | 24 | 3.5 | 7.0 | 0.00 | 0.00 | 0.00 | 69 | 1016.3 |
| 20260510042035 | 52 | 32 | 0.9 | 3.5 | 0.00 | 0.00 | 0.00 | 69 | 1016.3 |
| 20260510041535 | 52 | 36 | 3.5 | 10.4 | 0.00 | 0.00 | 0.00 | 69 | 1016.2 |
| 20260510041035 | 52 | 25 | 5.2 | 10.4 | 0.00 | 0.00 | 0.00 | 69 | 1016.2 |
| 20260510040535 | 52 | 73 | 4.3 | 8.7 | 0.00 | 0.00 | 0.00 | 68 | 1016.1 |
| 20260510040034 | 52 | 48 | 1.7 | 5.2 | 0.00 | 0.00 | 0.00 | 68 | 1016.2 |
| 20260510035538 | 52 | 36 | 3.5 | 7.0 | 0.00 | 0.00 | 0.00 | 68 | 1016.2 |
| 20260510035037 | 52 | 31 | 6.1 | 13.9 | 0.00 | 0.00 | 0.00 | 68 | 1016.2 |
| 20260510034534 | 52 | 45 | 4.3 | 8.7 | 0.00 | 0.00 | 0.00 | 68 | 1016.3 |
| 20260510034034 | 52 | 43 | 5.2 | 15.6 | 0.00 | 0.00 | 0.00 | 68 | 1016.4 |
| 20260510033534 | 52 | 28 | 2.6 | 5.2 | 0.00 | 0.00 | 0.00 | 68 | 1016.4 |
| 20260510033034 | 52 | 34 | 3.5 | 7.0 | 0.00 | 0.00 | 0.00 | 67 | 1016.5 |
| 20260510032534 | 52 | 36 | 4.3 | 7.0 | 0.00 | 0.00 | 0.00 | 67 | 1016.5 |
| 20260510032039 | 52 | 52 | 6.1 | 15.6 | 0.00 | 0.00 | 0.00 | 67 | 1016.6 |
| 20260510031537 | 53 | 15 | 1.7 | 5.2 | 0.00 | 0.00 | 0.00 | 67 | 1016.6 |
| 20260510031033 | 53 | 86 | 0.0 | 3.5 | 0.00 | 0.00 | 0.00 | 67 | 1016.5 |
| 20260510030535 | 53 | 34 | 2.6 | 5.2 | 0.00 | 0.00 | 0.00 | 66 | 1016.4 |
| 20260510025530 | 53 | 42 | 4.3 | 10.4 | 0.00 | 0.00 | 0.00 | 66 | 1016.4 |
| 20260510025037 | 53 | 50 | 3.5 | 7.0 | 0.00 | 0.00 | 0.00 | 66 | 1016.5 |
| 20260510024036 | 53 | 18 | 4.3 | 8.7 | 0.00 | 0.00 | 0.00 | 66 | 1016.5 |
| 20260510023035 | 54 | 53 | 3.5 | 5.2 | 0.00 | 0.00 | 0.00 | 65 | 1016.5 |
| 20260510022530 | 54 | 37 | 2.6 | 10.4 | 0.00 | 0.00 | 0.00 | 65 | 1016.5 |
| 20260510022045 | 54 | 25 | 7.8 | 13.9 | 0.00 | 0.00 | 0.00 | 65 | 1016.5 |
| 20260510021537 | 54 | 43 | 3.5 | 7.0 | 0.00 | 0.00 | 0.00 | 65 | 1016.5 |
| 20260510021034 | 54 | 48 | 4.3 | 7.0 | 0.00 | 0.00 | 0.00 | 65 | 1016.5 |
| 20260510020534 | 54 | 51 | 2.6 | 10.4 | 0.00 | 0.00 | 0.00 | 64 | 1016.5 |
| 20260510020033 | 54 | 18 | 7.0 | 10.4 | 0.00 | 0.00 | 0.00 | 64 | 1016.5 |
| 20260510015534 | 54 | 46 | 5.2 | 10.4 | 0.00 | 0.00 | 0.00 | 64 | 1016.5 |
| 20260510014533 | 54 | 84 | 3.5 | 8.7 | 0.00 | 0.00 | 0.00 | 64 | 1016.6 |
| 20260510014028 | 54 | 44 | 4.3 | 8.7 | 0.00 | 0.00 | 0.00 | 64 | 1016.8 |
| 20260510013034 | 54 | 3 | 0.9 | 3.5 | 0.00 | 0.00 | 0.00 | 63 | 1016.8 |
| 20260510012534 | 54 | 46 | 1.7 | 5.2 | 0.00 | 0.00 | 0.00 | 63 | 1016.8 |
| 20260510012033 | 54 | 32 | 4.3 | 10.4 | 0.00 | 0.00 | 0.00 | 63 | 1016.8 |
| 20260510011533 | 54 | 23 | 1.7 | 5.2 | 0.00 | 0.00 | 0.00 | 63 | 1016.8 |
| 20260510011033 | 54 | 16 | 4.3 | 12.2 | 0.00 | 0.00 | 0.00 | 63 | 1016.7 |
| 20260510010538 | 54 | 53 | 1.7 | 5.2 | 0.00 | 0.00 | 0.00 | 63 | 1016.8 |
| 20260510010033 | 54 | 342 | 1.7 | 5.2 | 0.00 | 0.00 | 0.00 | 62 | 1016.8 |
| 20260510005533 | 54 | 15 | 1.7 | 5.2 | 0.00 | 0.00 | 0.00 | 62 | 1016.8 |
| 20260510005034 | 54 | 28 | 4.3 | 8.7 | 0.00 | 0.00 | 0.00 | 62 | 1016.9 |
| 20260510004537 | 54 | 26 | 3.5 | 7.0 | 0.00 | 0.00 | 0.00 | 62 | 1016.9 |
| 20260510004033 | 54 | 43 | 3.5 | 5.2 | 0.00 | 0.00 | 0.00 | 62 | 1017.0 |
| 20260510003538 | 54 | 29 | 3.5 | 7.0 | 0.00 | 0.00 | 0.00 | 62 | 1017.0 |
| 20260510003034 | 54 | 38 | 5.2 | 10.4 | 0.00 | 0.00 | 0.00 | 62 | 1017.1 |
| 20260510002538 | 54 | 10 | 4.3 | 8.7 | 0.00 | 0.00 | 0.00 | 62 | 1017.1 |
| 20260510002029 | 53 | 26 | 2.6 | 5.2 | 0.00 | 0.00 | 0.00 | 61 | 1017.1 |
| 20260510001534 | 53 | 19 | 2.6 | 5.2 | 0.00 | 0.00 | 0.00 | 61 | 1017.0 |
| 20260510001037 | 53 | 26 | 2.6 | 8.7 | 0.00 | 0.00 | 0.00 | 61 | 1017.0 |
| 20260510000538 | 52 | 22 | 0.9 | 3.5 | 0.00 | 0.00 | 0.00 | 61 | 1017.1 |
| 20260510000033 | 52 | 21 | 0.0 | 0.0 | 0.00 | 0.00 | 0.00 | 61 | 1017.2 |
| 20260509235531 | 53 | 31 | 1.7 | 3.5 | 0.00 | 0.00 | 0.00 | 61 | 1017.2 |
| 20260509235038 | 53 | 38 | 2.6 | 5.2 | 0.00 | 0.00 | 0.00 | 61 | 1017.1 |
| 20260509234032 | 53 | 27 | 3.5 | 7.0 | 0.00 | 0.00 | 0.00 | 60 | 1017.1 |
| 20260509233539 | 53 | 37 | 5.2 | 7.0 | 0.00 | 0.00 | 0.00 | 60 | 1017.1 |
| 20260509233034 | 52 | 20 | 4.3 | 8.7 | 0.00 | 0.00 | 0.00 | 60 | 1017.2 |
| 20260509232529 | 52 | 34 | 2.6 | 3.5 | 0.00 | 0.00 | 0.00 | 60 | 1017.2 |
| 20260509232035 | 51 | 35 | 1.7 | 3.5 | 0.00 | 0.00 | 0.00 | 60 | 1017.3 |
| 20260509231530 | 52 | 25 | 2.6 | 5.2 | 0.00 | 0.00 | 0.00 | 59 | 1017.4 |
| 20260509230539 | 52 | 34 | 1.7 | 3.5 | 0.00 | 0.00 | 0.00 | 59 | 1017.4 |
| 20260509230035 | 52 | 30 | 1.7 | 5.2 | 0.00 | 0.00 | 0.00 | 59 | 1017.4 |
| 20260509225532 | 52 | 28 | 3.5 | 7.0 | 0.00 | 0.00 | 0.00 | 59 | 1017.4 |
| 20260509225040 | 52 | 3 | 1.7 | 3.5 | 0.00 | 0.00 | 0.00 | 59 | 1017.5 |
| 20260509224538 | 52 | 22 | 3.5 | 5.2 | 0.00 | 0.00 | 0.00 | 58 | 1017.6 |
| 20260509223540 | 52 | 9 | 2.6 | 3.5 | 0.00 | 0.00 | 0.00 | 58 | 1017.6 |
| 20260509223038 | 53 | 30 | 0.9 | 3.5 | 0.00 | 0.00 | 0.00 | 58 | 1017.6 |
| 20260509222531 | 53 | 19 | 2.6 | 5.2 | 0.00 | 0.00 | 0.00 | 58 | 1017.5 |
| 20260509222039 | 53 | 20 | 3.5 | 5.2 | 0.00 | 0.00 | 0.00 | 58 | 1017.6 |
| 20260509221529 | 53 | 11 | 1.7 | 3.5 | 0.00 | 0.00 | 0.00 | 58 | 1017.5 |
| 20260509221034 | 53 | 10 | 2.6 | 3.5 | 0.00 | 0.00 | 0.00 | 57 | 1017.5 |
| 20260509220531 | 53 | 11 | 1.7 | 3.5 | 0.00 | 0.00 | 0.00 | 57 | 1017.4 |
| 20260509220029 | 54 | 11 | 2.6 | 3.5 | 0.00 | 0.00 | 0.00 | 57 | 1017.4 |
| 20260509215535 | 54 | 18 | 2.6 | 3.5 | 0.00 | 0.00 | 0.00 | 57 | 1017.3 |
| 20260509215035 | 54 | 18 | 0.0 | 0.0 | 0.00 | 0.00 | 0.00 | 57 | 1017.4 |
| 20260509214528 | 54 | 18 | 0.9 | 1.7 | 0.00 | 0.00 | 0.00 | 57 | 1017.4 |
| 20260509214036 | 55 | 18 | 1.7 | 3.5 | 0.00 | 0.00 | 0.00 | 57 | 1017.3 |
| 20260509213038 | 55 | 14 | 2.6 | 5.2 | 0.00 | 0.00 | 0.00 | 56 | 1017.4 |
| 20260509212535 | 55 | 9 | 0.0 | 3.5 | 0.00 | 0.00 | 0.00 | 56 | 1017.4 |
| 20260509212035 | 56 | 23 | 3.5 | 7.0 | 0.00 | 0.00 | 0.00 | 56 | 1017.2 |
| 20260509211535 | 56 | 17 | 4.3 | 7.0 | 0.00 | 0.00 | 0.00 | 56 | 1017.2 |
| 20260509211035 | 56 | 28 | 3.5 | 7.0 | 0.00 | 0.00 | 0.00 | 56 | 1017.2 |
| 20260509210535 | 56 | 28 | 3.5 | 5.2 | 0.00 | 0.00 | 0.00 | 56 | 1017.2 |
| 20260509210035 | 56 | 28 | 1.7 | 3.5 | 0.00 | 0.00 | 0.00 | 56 | 1017.2 |
| 20260509205036 | 57 | 18 | 2.6 | 5.2 | 0.00 | 0.00 | 0.00 | 56 | 1017.2 |
| 20260509204036 | 57 | 21 | 3.5 | 5.2 | 0.00 | 0.00 | 0.00 | 55 | 1017.2 |
| 20260509203535 | 57 | 21 | 4.3 | 7.0 | 0.00 | 0.00 | 0.00 | 55 | 1017.3 |
| 20260509203035 | 58 | 19 | 3.5 | 7.0 | 0.00 | 0.00 | 0.00 | 55 | 1017.3 |
| 20260509202535 | 58 | 24 | 2.6 | 5.2 | 0.00 | 0.00 | 0.00 | 55 | 1017.3 |
| 20260509201535 | 58 | 21 | 2.6 | 7.0 | 0.00 | 0.00 | 0.00 | 55 | 1017.2 |
| 20260509201035 | 58 | 10 | 4.3 | 7.0 | 0.00 | 0.00 | 0.00 | 55 | 1017.2 |
| 20260509200536 | 59 | 9 | 4.3 | 7.0 | 0.00 | 0.00 | 0.00 | 54 | 1017.2 |
| 20260509200035 | 59 | 13 | 5.2 | 7.0 | 0.00 | 0.00 | 0.00 | 54 | 1017.2 |
| 20260509195535 | 59 | 11 | 4.3 | 7.0 | 0.00 | 0.00 | 0.00 | 54 | 1017.3 |
| 20260509195036 | 60 | 10 | 4.3 | 7.0 | 0.00 | 0.00 | 0.00 | 54 | 1017.2 |
| 20260509194536 | 60 | 27 | 4.3 | 8.7 | 0.00 | 0.00 | 0.00 | 54 | 1017.1 |
| 20260509194029 | 60 | 16 | 6.1 | 8.7 | 0.00 | 0.00 | 0.00 | 54 | 1017.1 |
| 20260509193535 | 61 | 23 | 7.8 | 10.4 | 0.00 | 0.00 | 0.00 | 54 | 1017.0 |
| 20260509193035 | 61 | 22 | 6.1 | 8.7 | 0.00 | 0.00 | 0.00 | 54 | 1017.0 |
| 20260509192536 | 61 | 28 | 7.0 | 10.4 | 0.00 | 0.00 | 0.00 | 53 | 1017.0 |
| 20260509192035 | 61 | 24 | 7.0 | 10.4 | 0.00 | 0.00 | 0.00 | 53 | 1016.9 |
| 20260509191535 | 62 | 30 | 5.2 | 7.0 | 0.00 | 0.00 | 0.00 | 53 | 1016.9 |
| 20260509190535 | 62 | 15 | 7.0 | 10.4 | 0.00 | 0.00 | 0.00 | 53 | 1016.9 |
| 20260509190035 | 63 | 31 | 11.3 | 15.6 | 0.00 | 0.00 | 0.00 | 53 | 1017.0 |
| 20260509185035 | 63 | 29 | 11.3 | 13.9 | 0.00 | 0.00 | 0.00 | 53 | 1017.0 |
| 20260509184535 | 63 | 15 | 7.8 | 12.2 | 0.00 | 0.00 | 0.00 | 53 | 1016.7 |
| 20260509184035 | 64 | 30 | 6.1 | 10.4 | 0.00 | 0.00 | 0.00 | 53 | 1016.7 |
| 20260509183536 | 64 | 21 | 8.7 | 13.9 | 0.00 | 0.00 | 0.00 | 52 | 1016.7 |
| 20260509183035 | 65 | 20 | 8.7 | 13.9 | 0.00 | 0.00 | 0.00 | 52 | 1016.8 |
| 20260509182536 | 65 | 33 | 11.3 | 15.6 | 0.00 | 0.00 | 0.00 | 52 | 1016.8 |
| 20260509182029 | 66 | 26 | 9.6 | 15.6 | 0.00 | 0.00 | 0.00 | 52 | 1016.7 |
| 20260509181535 | 66 | 14 | 7.8 | 13.9 | 0.00 | 0.00 | 0.00 | 52 | 1016.8 |
| 20260509181035 | 66 | 22 | 8.7 | 12.2 | 0.00 | 0.00 | 0.00 | 52 | 1016.8 |
| 20260509180035 | 67 | 24 | 7.0 | 12.2 | 0.00 | 0.00 | 0.00 | 52 | 1016.8 |
| 20260509175535 | 68 | 12 | 11.3 | 17.4 | 0.00 | 0.00 | 0.00 | 52 | 1016.7 |
| 20260509174535 | 68 | 17 | 8.7 | 12.2 | 0.00 | 0.00 | 0.00 | 52 | 1016.8 |
| 20260509174035 | 69 | 9 | 7.0 | 10.4 | 0.00 | 0.00 | 0.00 | 52 | 1016.7 |
| 20260509173531 | 69 | 5 | 7.8 | 10.4 | 0.00 | 0.00 | 0.00 | 52 | 1016.6 |
| 20260509173035 | 69 | 29 | 9.6 | 13.9 | 0.00 | 0.00 | 0.00 | 52 | 1016.6 |
| 20260509172535 | 69 | 28 | 11.3 | 15.6 | 0.00 | 0.00 | 0.00 | 52 | 1016.5 |
| 20260509172035 | 69 | 22 | 11.3 | 15.6 | 0.00 | 0.00 | 0.00 | 52 | 1016.5 |
| 20260509171535 | 70 | 21 | 8.7 | 12.2 | 0.00 | 0.00 | 0.00 | 52 | 1016.5 |
| 20260509171035 | 70 | 32 | 8.7 | 12.2 | 0.00 | 0.00 | 0.00 | 52 | 1016.5 |
| 20260509170536 | 70 | 7 | 10.4 | 17.4 | 0.00 | 0.00 | 0.00 | 52 | 1016.5 |
| 20260509170036 | 71 | 28 | 7.8 | 12.2 | 0.00 | 0.00 | 0.00 | 52 | 1016.3 |
| 20260509165537 | 70 | 38 | 5.2 | 8.7 | 0.00 | 0.00 | 0.00 | 52 | 1016.4 |
| 20260509165037 | 70 | 9 | 1.7 | 3.5 | 0.00 | 0.00 | 0.00 | 52 | 1016.5 |
| 20260509164537 | 70 | 39 | 1.7 | 5.2 | 0.00 | 0.00 | 0.00 | 53 | 1016.6 |
| 20260509164036 | 70 | 21 | 1.7 | 3.5 | 0.00 | 0.00 | 0.00 | 53 | 1016.7 |
| 20260509163537 | 71 | 275 | 0.9 | 3.5 | 0.00 | 0.00 | 0.00 | 53 | 1016.8 |
| 20260509163036 | 72 | 89 | 3.5 | 8.7 | 0.00 | 0.00 | 0.00 | 53 | 1016.7 |
| 20260509162536 | 73 | 17 | 0.9 | 3.5 | 0.00 | 0.00 | 0.00 | 53 | 1016.8 |
| 20260509162036 | 74 | 98 | 2.6 | 5.2 | 0.00 | 0.00 | 0.00 | 53 | 1016.8 |
| 20260509161036 | 75 | 112 | 2.6 | 5.2 | 0.00 | 0.00 | 0.00 | 53 | 1016.9 |
| 20260509160540 | 75 | 319 | 0.0 | 1.7 | 0.00 | 0.00 | 0.00 | 53 | 1016.9 |
| 20260509160036 | 74 | 44 | 1.7 | 5.2 | 0.00 | 0.00 | 0.00 | 54 | 1016.8 |
| 20260509155536 | 74 | 130 | 4.3 | 8.7 | 0.00 | 0.00 | 0.00 | 54 | 1016.8 |
| 20260509154536 | 75 | 80 | 1.7 | 7.0 | 0.00 | 0.00 | 0.00 | 54 | 1016.8 |
| 20260509154037 | 76 | 296 | 1.7 | 5.2 | 0.00 | 0.00 | 0.00 | 54 | 1016.8 |
| 20260509153536 | 75 | 42 | 2.6 | 7.0 | 0.00 | 0.00 | 0.00 | 55 | 1016.8 |
| 20260509153036 | 74 | 40 | 2.6 | 8.7 | 0.00 | 0.00 | 0.00 | 55 | 1016.8 |
| 20260509152537 | 76 | 33 | 1.7 | 5.2 | 0.00 | 0.00 | 0.00 | 55 | 1016.7 |
| 20260509152037 | 74 | 122 | 3.5 | 8.7 | 0.00 | 0.00 | 0.00 | 55 | 1016.7 |
| 20260509151537 | 75 | 106 | 4.3 | 10.4 | 0.00 | 0.00 | 0.00 | 55 | 1016.8 |
| 20260509151037 | 75 | 14 | 6.1 | 8.7 | 0.00 | 0.00 | 0.00 | 56 | 1016.8 |
| 20260509150037 | 76 | 113 | 3.5 | 8.7 | 0.00 | 0.00 | 0.00 | 56 | 1016.8 |
| 20260509145530 | 76 | 129 | 0.9 | 3.5 | 0.00 | 0.00 | 0.00 | 56 | 1016.9 |
| 20260509145037 | 75 | 357 | 2.6 | 8.7 | 0.00 | 0.00 | 0.00 | 57 | 1016.8 |
| 20260509144536 | 74 | 123 | 7.8 | 10.4 | 0.00 | 0.00 | 0.00 | 57 | 1016.9 |
| 20260509144036 | 74 | 276 | 1.7 | 3.5 | 0.00 | 0.00 | 0.00 | 57 | 1016.9 |
| 20260509143536 | 73 | 119 | 7.0 | 10.4 | 0.00 | 0.00 | 0.00 | 57 | 1016.9 |
| 20260509142537 | 72 | 40 | 5.2 | 8.7 | 0.00 | 0.00 | 0.00 | 58 | 1017.2 |
| 20260509142037 | 73 | 305 | 1.7 | 3.5 | 0.00 | 0.00 | 0.00 | 58 | 1017.2 |
| 20260509141537 | 73 | 35 | 1.7 | 3.5 | 0.00 | 0.00 | 0.00 | 58 | 1017.3 |
| 20260509141036 | 75 | 50 | 7.0 | 10.4 | 0.00 | 0.00 | 0.00 | 58 | 1017.2 |
| 20260509140537 | 75 | 142 | 4.3 | 8.7 | 0.00 | 0.00 | 0.00 | 58 | 1017.3 |
| 20260509140036 | 76 | 307 | 1.7 | 5.2 | 0.00 | 0.00 | 0.00 | 59 | 1017.3 |
| 20260509135530 | 76 | 129 | 2.6 | 5.2 | 0.00 | 0.00 | 0.00 | 59 | 1017.3 |
| 20260509135037 | 76 | 149 | 0.9 | 3.5 | 0.00 | 0.00 | 0.00 | 59 | 1017.3 |
| 20260509134537 | 75 | 284 | 3.5 | 5.2 | 0.00 | 0.00 | 0.00 | 59 | 1017.3 |
| 20260509134030 | 75 | 79 | 2.6 | 5.2 | 0.00 | 0.00 | 0.00 | 59 | 1017.3 |
| 20260509133536 | 75 | 99 | 3.5 | 5.2 | 0.00 | 0.00 | 0.00 | 60 | 1017.3 |
| 20260509133036 | 74 | 132 | 5.2 | 10.4 | 0.00 | 0.00 | 0.00 | 60 | 1017.3 |
| 20260509132530 | 74 | 88 | 4.3 | 8.7 | 0.00 | 0.00 | 0.00 | 60 | 1017.3 |
| 20260509132037 | 74 | 137 | 8.7 | 12.2 | 0.00 | 0.00 | 0.00 | 60 | 1017.3 |
| 20260509131536 | 73 | 337 | 2.6 | 5.2 | 0.00 | 0.00 | 0.00 | 61 | 1017.4 |
| 20260509131030 | 73 | 101 | 3.5 | 5.2 | 0.00 | 0.00 | 0.00 | 61 | 1017.5 |
| 20260509130537 | 72 | 115 | 5.2 | 10.4 | 0.00 | 0.00 | 0.00 | 61 | 1017.6 |
| 20260509130037 | 72 | 149 | 5.2 | 8.7 | 0.00 | 0.00 | 0.00 | 61 | 1017.7 |
| 20260509125037 | 74 | 45 | 0.0 | 1.7 | 0.00 | 0.00 | 0.00 | 62 | 1017.8 |
| 20260509124536 | 73 | 358 | 3.5 | 7.0 | 0.00 | 0.00 | 0.00 | 62 | 1017.9 |
| 20260509124035 | 75 | 17 | 1.7 | 5.2 | 0.00 | 0.00 | 0.00 | 62 | 1017.8 |
| 20260509123536 | 75 | 133 | 3.5 | 7.0 | 0.00 | 0.00 | 0.00 | 62 | 1017.8 |
| 20260509123036 | 73 | 20 | 3.5 | 7.0 | 0.00 | 0.00 | 0.00 | 62 | 1017.9 |
| 20260509122531 | 72 | 217 | 3.5 | 5.2 | 0.00 | 0.00 | 0.00 | 63 | 1018.0 |
| 20260509122037 | 73 | 152 | 1.7 | 3.5 | 0.00 | 0.00 | 0.00 | 63 | 1018.0 |
| 20260509121536 | 74 | 33 | 0.9 | 3.5 | 0.00 | 0.00 | 0.00 | 63 | 1018.0 |
| 20260509121036 | 73 | 122 | 1.7 | 5.2 | 0.00 | 0.00 | 0.00 | 63 | 1018.2 |
| 20260509120537 | 73 | 196 | 0.0 | 3.5 | 0.00 | 0.00 | 0.00 | 64 | 1018.3 |
| 20260509120036 | 74 | 38 | 0.9 | 3.5 | 0.00 | 0.00 | 0.00 | 64 | 1018.3 |
| 20260509115536 | 72 | 281 | 1.7 | 3.5 | 0.00 | 0.00 | 0.00 | 64 | 1018.3 |
| 20260509115037 | 72 | 38 | 2.6 | 5.2 | 0.00 | 0.00 | 0.00 | 64 | 1018.4 |
| 20260509114536 | 70 | 58 | 0.9 | 7.0 | 0.00 | 0.00 | 0.00 | 65 | 1018.4 |
| 20260509114035 | 70 | 31 | 1.7 | 7.0 | 0.00 | 0.00 | 0.00 | 65 | 1018.5 |
| 20260509113536 | 73 | 109 | 3.5 | 8.7 | 0.00 | 0.00 | 0.00 | 65 | 1018.5 |
| 20260509113035 | 73 | 269 | 0.9 | 3.5 | 0.00 | 0.00 | 0.00 | 65 | 1018.6 |
| 20260509112536 | 73 | 129 | 6.1 | 12.2 | 0.00 | 0.00 | 0.00 | 66 | 1018.6 |
| 20260509111536 | 73 | 317 | 1.7 | 5.2 | 0.00 | 0.00 | 0.00 | 66 | 1018.7 |
| 20260509111036 | 72 | 154 | 1.7 | 3.5 | 0.00 | 0.00 | 0.00 | 66 | 1018.8 |
| 20260509110035 | 72 | 109 | 4.3 | 8.7 | 0.00 | 0.00 | 0.00 | 67 | 1018.8 |
| 20260509105535 | 71 | 121 | 5.2 | 10.4 | 0.00 | 0.00 | 0.00 | 67 | 1018.9 |
| 20260509105035 | 72 | 136 | 6.1 | 10.4 | 0.00 | 0.00 | 0.00 | 67 | 1018.9 |
| 20260509104535 | 71 | 111 | 3.5 | 7.0 | 0.00 | 0.00 | 0.00 | 68 | 1019.0 |
| 20260509104035 | 72 | 279 | 2.6 | 7.0 | 0.00 | 0.00 | 0.00 | 68 | 1018.9 |
| 20260509103536 | 71 | 109 | 4.3 | 10.4 | 0.00 | 0.00 | 0.00 | 68 | 1019.0 |
| 20260509103039 | 71 | 111 | 1.7 | 8.7 | 0.00 | 0.00 | 0.00 | 68 | 1019.0 |
| 20260509102536 | 71 | 68 | 3.5 | 8.7 | 0.00 | 0.00 | 0.00 | 68 | 1019.0 |
| 20260509102035 | 71 | 255 | 2.6 | 5.2 | 0.00 | 0.00 | 0.00 | 69 | 1019.0 |
| 20260509101536 | 71 | 330 | 0.9 | 3.5 | 0.00 | 0.00 | 0.00 | 69 | 1019.1 |
| 20260509101036 | 70 | 300 | 3.5 | 8.7 | 0.00 | 0.00 | 0.00 | 69 | 1019.2 |
| 20260509100536 | 70 | 108 | 5.2 | 12.2 | 0.00 | 0.00 | 0.00 | 69 | 1019.1 |
| 20260509095035 | 70 | 34 | 7.0 | 12.2 | 0.00 | 0.00 | 0.00 | 70 | 1019.1 |
| 20260509094535 | 69 | 78 | 4.3 | 8.7 | 0.00 | 0.00 | 0.00 | 70 | 1019.1 |
| 20260509094035 | 69 | 44 | 7.0 | 10.4 | 0.00 | 0.00 | 0.00 | 70 | 1019.0 |
| 20260509093536 | 69 | 306 | 0.0 | 1.7 | 0.00 | 0.00 | 0.00 | 71 | 1019.0 |
| 20260509093044 | 69 | 107 | 2.6 | 7.0 | 0.00 | 0.00 | 0.00 | 71 | 1019.0 |
| 20260509092535 | 68 | 314 | 0.9 | 3.5 | 0.00 | 0.00 | 0.00 | 71 | 1018.9 |
| 20260509092035 | 68 | 203 | 1.7 | 3.5 | 0.00 | 0.00 | 0.00 | 71 | 1019.2 |
| 20260509091529 | 67 | 143 | 4.3 | 8.7 | 0.00 | 0.00 | 0.00 | 71 | 1019.3 |
| 20260509090536 | 67 | 128 | 7.0 | 12.2 | 0.00 | 0.00 | 0.00 | 72 | 1019.3 |
| 20260509090030 | 68 | 144 | 1.7 | 3.5 | 0.00 | 0.00 | 0.00 | 72 | 1019.3 |
| 20260509085536 | 67 | 131 | 2.6 | 8.7 | 0.00 | 0.00 | 0.00 | 72 | 1019.2 |
| 20260509085036 | 67 | 156 | 2.6 | 5.2 | 0.00 | 0.00 | 0.00 | 73 | 1019.3 |
| 20260509084528 | 66 | 119 | 6.1 | 12.2 | 0.00 | 0.00 | 0.00 | 73 | 1019.4 |
| 20260509084036 | 66 | 135 | 4.3 | 12.2 | 0.00 | 0.00 | 0.00 | 73 | 1019.3 |
| 20260509083535 | 66 | 112 | 5.2 | 12.2 | 0.00 | 0.00 | 0.00 | 73 | 1019.3 |
| 20260509083029 | 66 | 127 | 7.0 | 12.2 | 0.00 | 0.00 | 0.00 | 74 | 1019.3 |
| 20260509082536 | 66 | 132 | 5.2 | 12.2 | 0.00 | 0.00 | 0.00 | 74 | 1019.4 |
| 20260509082036 | 66 | 126 | 1.7 | 7.0 | 0.00 | 0.00 | 0.00 | 74 | 1019.4 |
| 20260509081536 | 65 | 260 | 3.5 | 7.0 | 0.00 | 0.00 | 0.00 | 74 | 1019.4 |
| 20260509081035 | 65 | 263 | 0.9 | 3.5 | 0.00 | 0.00 | 0.00 | 74 | 1019.5 |
| 20260509080536 | 64 | 94 | 3.5 | 7.0 | 0.00 | 0.00 | 0.00 | 75 | 1019.4 |
| 20260509075535 | 64 | 198 | 1.7 | 3.5 | 0.00 | 0.00 | 0.00 | 75 | 1019.4 |
| 20260509074536 | 64 | 93 | 2.6 | 7.0 | 0.00 | 0.00 | 0.00 | 75 | 1019.5 |
| 20260509073535 | 62 | 211 | 0.9 | 1.7 | 0.00 | 0.00 | 0.00 | 76 | 1019.4 |
| 20260509073035 | 62 | 138 | 0.9 | 5.2 | 0.00 | 0.00 | 0.00 | 76 | 1019.3 |
| 20260509072534 | 61 | 345 | 0.9 | 3.5 | 0.00 | 0.00 | 0.00 | 76 | 1019.4 |
| 20260509072035 | 61 | 128 | 2.6 | 7.0 | 0.00 | 0.00 | 0.00 | 76 | 1019.4 |
| 20260509071535 | 60 | 68 | 2.6 | 7.0 | 0.00 | 0.00 | 0.00 | 76 | 1019.5 |
| 20260509071035 | 60 | 99 | 0.0 | 3.5 | 0.00 | 0.00 | 0.00 | 77 | 1019.4 |
| 20260509070535 | 59 | 110 | 2.6 | 5.2 | 0.00 | 0.00 | 0.00 | 77 | 1019.5 |
| 20260509070035 | 59 | 174 | 0.0 | 1.7 | 0.00 | 0.00 | 0.00 | 77 | 1019.4 |
| 20260509065035 | 57 | 156 | 0.9 | 3.5 | 0.00 | 0.00 | 0.00 | 77 | 1019.4 |
| 20260509064535 | 56 | 105 | 2.6 | 7.0 | 0.00 | 0.00 | 0.00 | 77 | 1019.3 |